Location: Emanuelssegen
(50.1975°N, 19.0449°E)
Time: 01:11:20
(UTC+00:00)

Daily predictions for brighter satellites

Satellite Brightness Start Highest point End
(mag) Time Altitude Azimuth Time Altitude Azimuth Time Altitude Azimuth
Cosmos 1980 Rocket 4.5 00:40:04 19° NNE 00:40:04 19° NNE 00:41:38 10° NNE
Cosmos 2278 Rocket 4.2 01:02:53 13° N 01:06:40 24° NE 01:11:12 10° E
ADEOS II 4.0 01:05:42 10° NNE 01:08:04 26° NE 01:08:04 26° NE
Cosmos 2333 Rocket 4.3 01:13:15 18° ESE 01:13:59 19° E 01:17:52 10° ENE
CZ-2D R/B 4.3 01:10:28 10° N 01:11:42 17° N 01:11:42 17° N
USA 234 3.8 01:14:30 10° ESE 01:19:10 50° E 01:19:10 50° E
ATLAS 3B R/B 3.7 01:27:54 30° NNW 01:30:17 40° NNE 01:36:36 10° E
SL-16 R/B 3.5 01:35:09 34° NNE 01:35:09 34° NNE 01:38:22 10° NNE
CENTAUR R/B 3.7 01:38:06 25° NNW 01:42:45 52° NE 01:51:03 10° ESE
Cosmos 2219 Rocket 3.6 01:41:53 28° ESE 01:42:48 30° ESE 01:47:36 10° NE
IDEFIX/ARIANE 42P 4.4 01:39:32 10° NE 01:44:00 28° E 01:46:19 20° SE
ATLAS 2AS CENTAUR R/B 4.4 01:49:25 17° SSE 01:54:27 33° ESE 02:01:22 10° NE
USA 238 DEB 3.7 01:55:19 78° NW 01:55:53 89° SW 02:03:18 10° SE
USA 238 3.7 01:55:23 77° NW 01:55:59 90° SW 02:03:24 10° SE
Cosmos 2251 Rocket 4.0 01:59:26 57° E 01:59:26 57° E 02:04:28 10° NNE
Lacrosse 4 Rocket 4.0 02:05:43 13° N 02:05:43 13° N 02:06:21 10° NNE
Cosmos 2322 Rocket 3.2 02:05:39 35° N 02:05:39 35° N 02:09:26 10° NNE
COSMOS 2428 3.6 02:03:09 37° SE 02:04:27 43° ESE 02:09:48 10° NE
Cosmos 2098 Rocket 4.3 02:05:07 66° SSW 02:06:21 85° W 02:13:45 10° N
Cosmos 1809 Rocket 4.5 02:07:20 67° NNW 02:07:20 67° NNW 02:12:45 10° N
SL-08 ROCKET BODY 4.2 02:14:05 85° NW 02:14:05 85° NW 02:20:01 10° N
Cosmos 2360 Rocket 2.4 02:15:12 58° NNW 02:15:12 58° NNW 02:20:01 10° NNE
Cosmos 1709 Rocket 4.0 02:17:22 44° S 02:19:33 80° E 02:25:56 10° NNE
Resurs 1-4 Rocket 4.2 02:16:22 10° N 02:17:40 15° NNW 02:17:40 15° NNW
Cosmos 1980 Rocket 4.1 02:21:50 16° NNW 02:21:50 16° NNW 02:24:54 10° N
NOSS 3-2 (A) 3.9 02:18:10 39° NW 02:21:25 78° SW 02:29:44 10° SSE
Meteor 2-21 Rocket 4.3 02:24:36 67° SW 02:25:24 78° WNW 02:31:38 10° N
Cosmos 1842 4.2 02:26:48 47° ENE 02:26:48 47° ENE 02:30:15 10° NNE
Meteor 2-14 Rocket 4.3 02:27:58 67° W 02:28:11 67° WNW 02:34:21 10° N
USA 267 3.1 02:21:59 10° ENE 02:28:35 89° SSE 02:30:09 56° WSW
NOSS 2-2 (E) 4.1 02:29:11 51° E 02:29:11 51° E 02:32:50 10° NE
Cosmos 1066 Rocket 4.3 02:32:42 56° NW 02:32:42 56° NW 02:37:32 10° N
H-2A R/B 3.7 02:30:08 10° NNE 02:34:02 39° E 02:36:53 17° SSE
COSMOS 2455 2.7 02:36:11 63° WSW 02:37:07 75° NW 02:43:10 10° NE
ADEOS 3.7 02:32:19 10° NNE 02:37:35 71° ESE 02:40:18 29° S
ERBS 4.4 02:38:09 23° SE 02:38:09 23° SE 02:40:40 10° ENE
Spot 2 4.0 02:34:54 10° NNE 02:38:40 71° ENE 02:38:40 71° ENE
CZ-2C R/B 4.0 02:35:03 10° NNE 02:39:51 36° E 02:44:35 10° SSE
Intercosmos 25 4.2 02:36:21 10° NNW 02:40:59 77° W 02:48:35 10° S
CBERS 1 LM4 rocket 4.3 02:39:05 10° NNE 02:44:14 76° WNW 02:44:55 64° SW
NOSS 3-2 (C) 3.9 02:39:12 21° NW 02:44:41 81° SW 02:53:01 10° SE
Cosmos 1745 Rocket 4.4 02:47:07 40° WNW 02:47:07 40° WNW 02:52:39 10° N
Meteor 2-16 Rocket 4.4 02:47:45 46° SW 02:49:26 63° WNW 02:55:30 10° N
USA 32 4.5 02:44:19 10° S 02:49:27 62° E 02:54:38 10° NNE
ADEOS II 3.4 02:45:54 10° N 02:49:00 25° NW 02:49:00 25° NW
ARIANE 5 R/B 3.9 02:46:46 10° N 02:49:21 23° NNW 02:49:21 23° NNW
Cosmos 2278 Rocket 2.1 02:45:47 10° NNW 02:51:31 87° WSW 02:57:11 10° SSE
Cosmos 292 Rocket 3.6 02:49:45 16° NNW 02:53:34 84° WSW 02:58:23 10° SSE
CZ-2D R/B 4.3 02:52:54 10° NNW 02:53:01 10° NNW 02:53:01 10° NNW
Cosmos 44 2.8 02:54:40 59° NW 02:55:28 88° SW 02:59:46 10° SE
Cosmos 2074 Rocket 4.4 02:50:18 10° S 02:56:26 64° E 03:02:36 10° NNE
PSLV R/B 3.3 02:52:25 10° NNE 02:56:41 79° WNW 02:57:18 63° SW
Cosmos 2333 Rocket 2.1 02:55:19 39° SW 02:57:33 82° WNW 03:03:18 10° NNE
Cosmos 1025 Rocket 2.9 02:58:03 37° S 02:59:41 89° E 03:04:00 10° N
Aureole 1 Rocket 3.5 02:58:30 31° SW 03:01:29 76° WNW 03:06:20 10° NNE
Cosmos 2181 Rocket 4.0 02:56:06 10° NNW 03:02:20 58° W 03:08:27 10° S
NOSS 3-4 (A) 4.3 02:58:39 10° SSW 03:04:22 47° ESE 03:10:26 10° NE
USA 234 3.6 02:58:12 10° SSE 03:04:23 44° SW 03:06:32 34° W
NOSS 3-4 (C) 4.3 02:58:44 10° SSW 03:04:28 46° ESE 03:10:32 10° NE
Cosmos 1378 4.1 03:06:48 35° NNW 03:06:48 35° NNW 03:09:18 10° N
Cosmos 921 Rocket 2.9 03:05:54 56° W 03:06:13 58° WSW 03:10:22 10° S
NOSS 2-2 (D) 3.1 03:06:11 64° WSW 03:06:44 83° NW 03:11:06 10° NE
Meteor 1-21 4.1 03:02:59 10° SSW 03:08:36 86° WNW 03:14:17 10° NNE
Cosmos 2333 4.4 03:10:00 38° W 03:11:40 50° NW 03:17:11 10° NNE
CZ-4B R/B 3.8 03:08:41 10° NNE 03:12:41 48° E 03:16:27 10° S
Cosmos 489 Rocket 4.4 03:08:28 10° NNW 03:14:41 70° WSW 03:20:54 10° S
SL-16 R/B 3.8 03:17:01 17° NW 03:18:01 18° NNW 03:21:48 10° N
Cosmos 389 Rocket 3.1 03:15:04 10° S 03:18:24 54° E 03:21:48 10° NNE
Cosmos 1536 Rocket 3.6 03:18:07 38° SW 03:19:24 51° WNW 03:23:39 10° N
Cosmos 1140 Rocket 4.5 03:14:31 10° S 03:19:28 47° ESE 03:24:25 10° NNE
PAYLOAD A 3.8 03:15:16 10° NNE 03:20:06 89° E 03:25:04 10° SSW
Cosmos 2322 4.3 03:19:21 32° W 03:21:04 39° NW 03:26:26 10° NNE
ATLAS 3B R/B 2.6 03:15:12 12° NW 03:21:29 74° SW 03:28:18 10° SSE
MSX 3.7 03:16:48 10° NNE 03:22:33 76° WNW 03:28:16 10° SSW
IDEFIX/ARIANE 42P 2.7 03:18:47 10° N 03:23:51 50° WNW 03:27:07 21° SW
Cosmos 614 Rocket 4.2 03:19:13 10° SSW 03:24:25 73° ESE 03:29:38 10° NNE
Cosmos 1953 2.3 03:21:17 10° N 03:25:21 88° E 03:29:22 10° S
Cosmos 2219 Rocket 2.3 03:23:39 27° WSW 03:26:29 54° NW 03:31:59 10° NNE
GENESIS II 4.3 03:26:19 36° WSW 03:27:48 66° NW 03:31:55 10° NE
SKYMED 2 4.3 03:25:44 10° SSE 03:29:58 56° ENE 03:34:15 10° N
Cosmos 1758 3.5 03:29:12 10° NNW 03:33:02 44° W 03:36:51 10° SSW
CENTAUR R/B 3.2 03:26:04 10° NW 03:33:54 63° SW 03:42:24 10° SSE
Cosmos 2237 Rocket 2.3 03:29:09 10° SSW 03:34:50 82° ESE 03:40:34 10° NNE
Meteor PRIRODA 4.0 03:38:08 10° NNE 03:41:54 69° ESE 03:45:37 10° S
Cosmos 1356 3.6 03:38:42 10° N 03:42:11 72° ENE 03:45:37 10° SSE
GP-B 3.5 03:38:32 10° SSE 03:42:56 68° E 03:47:22 10° N
NOSS 2-2 (C) 3.8 03:41:45 27° W 03:43:26 45° NW 03:47:47 10° NE
Gblst 52 Del rocket 4.1 03:40:51 21° WNW 03:44:36 86° SSW 03:50:31 10° ESE
ATLAS 2AS CENTAUR R/B 3.1 03:36:55 10° SW 03:44:55 81° NW 03:52:58 10° NE
BREEZE-M R/B 4.4 03:43:11 22° W 03:46:58 87° S 03:58:44 10° E
Cosmos 2369 Rocket 3.8 03:42:46 10° NNW 03:47:51 33° NE 03:52:53 10° ESE
Cosmos 1606 Rocket 3.4 03:44:29 10° NNW 03:48:46 64° W 03:53:02 10° S
COSMOS 2428 3.2 03:45:13 19° WSW 03:48:47 40° NW 03:54:08 10° NNE
Meteor 1-31 Rocket 2.6 03:45:41 10° N 03:49:29 64° WNW 03:53:13 10° SSW
Cosmos 2322 Rocket 4.1 03:47:28 12° NW 03:49:39 14° NNW 03:52:32 10° N
Cosmos 1980 3.6 03:46:10 10° SW 03:51:49 74° WNW 03:57:30 10° NNE
Meteor 2-10 4.1 03:46:41 10° N 03:51:52 83° ENE 03:57:11 10° SSE
Cosmos 1023 Rocket 4.5 03:48:55 10° SSW 03:54:06 89° ESE 03:59:17 10° NNE
RESURS DK-1 3.8 03:50:25 10° S 03:54:18 41° ESE 03:58:12 10° NE
Cosmos 1470 3.7 03:53:59 10° NNW 03:57:15 25° W 04:00:30 10° SW
Cosmos 2154 Rocket 3.9 03:52:36 10° SSW 03:58:48 78° W 04:05:03 10° N
CZ-4B R/B 3.9 03:55:19 10° N 03:59:08 53° WNW 04:03:07 10° SSW
Cosmos 2360 Rocket 3.8 03:56:58 14° WNW 03:59:31 18° NW 04:03:22 10° N
Cosmos 2327 Rocket 4.5 03:53:42 10° SSW 03:59:53 64° WNW 04:06:01 10° N
Cosmos 1707 3.0 03:56:57 10° SSW 04:00:43 46° WNW 04:04:32 10° N
Cosmos 676 Rocket 4.1 03:57:38 10° SSW 04:02:55 83° ESE 04:08:12 10° NNE
Okean 1-7 Rocket 3.6 04:01:18 10° S 04:05:44 88° W 04:10:17 10° N
Cosmos 1763 Rocket 4.4 04:01:15 10° NNW 04:06:20 50° ENE 04:11:20 10° SE
Cosmos 1484 Rocket 2.7 04:02:38 10° NNE 04:06:26 90° ESE 04:10:15 10° SSW
Cosmos 2184 Rocket 4.3 04:02:51 10° SW 04:08:46 44° WNW 04:14:46 10° N
H-2A R/B 3.5 04:05:59 10° N 04:09:23 25° WNW 04:12:50 10° WSW
USA 267 3.6 04:05:02 10° ENE 04:11:22 54° N 04:17:30 11° W
Cosmos 1190 Rocket 4.2 04:07:56 10° SW 04:13:08 55° WNW 04:18:21 10° NNE
ERBS 2.4 04:11:12 14° WSW 04:14:02 60° NNW 04:17:24 10° NE
Cosmos 407 Rocket 3.7 04:10:08 10° SW 04:15:05 47° WNW 04:20:03 10° NNE
Nadezhda 3 Rocket 4.2 04:09:52 10° NNW 04:15:59 49° W 04:22:02 10° SSW
USA 116 3.4 04:12:46 10° S 04:16:34 72° WSW 04:20:00 10° NNW
COSMO-SKYMED 1 2.7 04:13:52 10° S 04:18:05 50° W 04:22:20 10° NNW
CZ-2C R/B 3.0 04:13:17 10° N 04:18:05 39° WNW 04:22:51 10° SW
ALOS 2.7 04:13:29 10° NNE 04:18:10 68° ESE 04:22:49 10° S
Cosmos 1726 2.1 04:15:40 10° NNW 04:19:16 55° W 04:22:51 10° S
Cosmos 2341 Rocket 4.0 04:16:23 10° S 04:22:38 84° W 04:28:54 10° N
COBE Rocket 4.2 04:18:08 10° S 04:23:01 48° W 04:28:01 10° NNW
Meteor 1-16 Rocket 4.4 04:18:56 10° NNW 04:23:58 45° W 04:29:02 10° SSW
COSMOS 2455 4.1 04:19:21 11° W 04:24:03 25° NNW 04:28:58 10° NNE
Cosmos 1943 Rocket 2.8 04:20:12 10° NNW 04:25:51 63° ENE 04:31:29 10° SE
SL-16 R/B 2.4 04:21:35 10° SSW 04:27:16 83° ESE 04:32:58 10° NNE
FENGYUN 3A 3.9 04:22:56 10° NNE 04:28:25 77° ESE 04:33:51 10° S
Cosmos 1674 2.6 04:26:13 10° S 04:29:56 87° W 04:33:41 10° N
Cosmos 1726 Rocket 4.3 04:26:08 10° NNW 04:29:57 31° W 04:33:44 10° SSW
Meteor 1-4 Rocket 3.3 04:27:58 10° SW 04:31:04 29° WNW 04:34:09 10° N
Cosmos 2228 3.9 04:30:13 10° NNW 04:33:49 27° W 04:37:23 10° SW
Cosmos 2278 Rocket 3.6 04:31:25 10° WNW 04:34:45 16° W 04:38:05 10° SW
NOSS 0 Rocket 4.4 04:29:05 10° WSW 04:34:51 41° NW 04:40:43 10° NNE
Cosmos 2297 4.1 04:29:27 10° NW 04:34:55 46° WSW 04:40:21 10° S
Okean O Rocket 1.6 04:32:29 10° NNE 04:36:56 83° WNW 04:41:19 10° SSW
Cosmos 44 Rocket 3.5 04:34:43 10° NW 04:39:17 48° WSW 04:43:47 10° SSE
METEOR-M 4.2 04:34:40 10° NNE 04:40:03 82° WNW 04:45:23 10° SSW
Cosmos 1850 Rocket 4.4 04:35:44 10° SSW 04:40:53 71° ESE 04:46:04 10° NNE
